Cotes De La Manche — FQBE — position and weather

sailwx.info

Track history (hours):
 
Tides and Currents Weather Stations Pressure Air Temp Water Temp Dewpoint Dewpoint Depression Visibility Wind Speed Wind Dir Waves Ship Positions

Cotes De La Manche

Last reported at 2014-Nov-17 14:33 UTC. Time now 2014-Nov-21 16:33 UTC.
Position N 46°21' W 001°49'.

Length 25 m; draft 3.7 m.

Type: Other ship. MMSI: 227091000.

Date/timePositionNaut miles runAvg speedWind from/ knotsBaromVisibWave heightAir tempDewpointWater temp
2014-Nov-17 14:33N 46°21' W 001°49'1010.1
2014-Nov-17 13:33N 46°29' W 001°57'76 1.8
2014-Nov-15 20:29N 47°29' W 003°05'0 0.0
2014-Nov-15 19:16N 47°29' W 003°05'5 2.6
2014-Nov-15 17:10N 47°31' W 003°12'6 9.5
2014-Nov-15 16:33N 47°36' W 003°17'65 9.3
2014-Nov-15 09:32N 48°02' W 004°46'9 9.2
2014-Nov-15 08:33N 48°10' W 004°42'10 9.5
2014-Nov-15 07:33N 48°19' W 004°36'6 6.1
2014-Nov-15 06:33N 48°23' W 004°29'0 0.0
2014-Nov-15 05:33N 48°23' W 004°29'0 0.0
2014-Nov-15 04:33N 48°23' W 004°29'0 0.0
2014-Nov-15 03:33N 48°23' W 004°29'0 0.0
2014-Nov-15 02:33N 48°23' W 004°29'0 0.0
2014-Nov-15 01:33N 48°23' W 004°29'0 0.0
2014-Nov-15 00:33N 48°23' W 004°29'0 0.0
2014-Nov-14 23:33N 48°23' W 004°29'0 0.0
2014-Nov-14 22:33N 48°23' W 004°29'0 0.0
2014-Nov-14 21:33N 48°23' W 004°29'0 0.0
2014-Nov-14 20:33N 48°23' W 004°29'0 0.0
2014-Nov-14 19:33N 48°23' W 004°29'0 0.0
2014-Nov-14 18:33N 48°23' W 004°29'0 0.0
2014-Nov-14 17:33N 48°23' W 004°29'0 0.0
2014-Nov-14 16:33N 48°23' W 004°29'0 0.0
2014-Nov-14 15:27N 48°23' W 004°29'0 0.0
2014-Nov-14 14:33N 48°23' W 004°29'0 0.0
2014-Nov-14 12:33N 48°23' W 004°29'0 0.0
2014-Nov-14 11:33N 48°23' W 004°29'0 0.0
2014-Nov-14 10:33N 48°23' W 004°29'0 0.0
2014-Nov-14 09:33N 48°23' W 004°29'0 0.0
2014-Nov-14 08:33N 48°23' W 004°29'0 0.0
2014-Nov-14 07:33N 48°23' W 004°29'0 0.0
2014-Nov-14 06:33N 48°23' W 004°29'0 0.0
2014-Nov-14 05:33N 48°23' W 004°29'0 0.0
2014-Nov-14 04:33N 48°23' W 004°29'0 0.0
2014-Nov-14 03:33N 48°23' W 004°29'0 0.0
2014-Nov-14 02:33N 48°23' W 004°29'0 0.0
2014-Nov-14 01:33N 48°23' W 004°29'0 0.0
2014-Nov-14 00:33N 48°23' W 004°29'0 0.0
2014-Nov-13 23:33N 48°23' W 004°29'0 0.0
2014-Nov-13 22:33N 48°23' W 004°29'0 0.0
2014-Nov-13 21:33N 48°23' W 004°29'0 0.0
2014-Nov-13 20:33N 48°23' W 004°29'0 0.0
2014-Nov-13 19:33N 48°23' W 004°29'0 0.0
2014-Nov-13 18:33N 48°23' W 004°29'0 0.0
2014-Nov-13 17:33N 48°23' W 004°29'0 0.0
2014-Nov-13 16:33N 48°23' W 004°29'0 0.0
2014-Nov-13 15:33N 48°23' W 004°29'0 0.0
2014-Nov-13 14:33N 48°23' W 004°29'0 0.0
2014-Nov-13 13:33N 48°23' W 004°29'0 0.0
2014-Nov-13 12:33N 48°23' W 004°29'0 0.0
2014-Nov-13 11:33N 48°23' W 004°29'0 0.0
2014-Nov-13 10:33N 48°23' W 004°29'0 0.0
2014-Nov-13 09:33N 48°23' W 004°29'0 0.0
2014-Nov-13 08:33N 48°23' W 004°29'0 0.0
2014-Nov-13 07:33N 48°23' W 004°29'0 0.0
2014-Nov-13 06:33N 48°23' W 004°29'0 0.0
2014-Nov-13 05:33N 48°23' W 004°29'0 0.0
2014-Nov-13 04:33N 48°23' W 004°29'0 0.0
2014-Nov-13 03:33N 48°23' W 004°29'0 0.0
2014-Nov-13 02:33N 48°23' W 004°29'0 0.0
2014-Nov-13 01:33N 48°23' W 004°29'0 0.0
2014-Nov-13 00:34N 48°23' W 004°29'0 0.0
2014-Nov-12 23:33N 48°23' W 004°29'0 0.0
2014-Nov-12 22:33N 48°23' W 004°29'0 0.0
2014-Nov-12 21:33N 48°23' W 004°29'0 0.0
2014-Nov-12 20:33N 48°23' W 004°29'0 0.0
2014-Nov-12 19:33N 48°23' W 004°29'0 0.0
2014-Nov-12 18:33N 48°23' W 004°29'0 0.0
2014-Nov-12 17:33N 48°23' W 004°29'0 0.0
2014-Nov-12 16:33N 48°23' W 004°29'0 0.0
2014-Nov-12 15:33N 48°23' W 004°29'0 0.0
2014-Nov-12 14:33N 48°23' W 004°29'0 0.0
2014-Nov-12 13:33N 48°23' W 004°29'0 0.0
2014-Nov-12 12:34N 48°23' W 004°29'0 0.0
2014-Nov-12 11:33N 48°23' W 004°29'0 0.0
2014-Nov-12 10:33N 48°23' W 004°29'0 0.0
2014-Nov-12 09:33N 48°23' W 004°29'0 0.0
2014-Nov-12 08:33N 48°23' W 004°29'0 0.0
2014-Nov-12 07:33N 48°23' W 004°29'0 0.0
2014-Nov-12 06:33N 48°23' W 004°29'0 0.0
2014-Nov-12 05:33N 48°23' W 004°29'0 0.0
2014-Nov-12 04:33N 48°23' W 004°29'0 0.0
2014-Nov-12 03:33N 48°23' W 004°29'0 0.0
2014-Nov-12 02:33N 48°23' W 004°29'0 0.0
2014-Nov-12 01:33N 48°23' W 004°29'0 0.0
2014-Nov-12 00:33N 48°23' W 004°29'0 0.0
2014-Nov-11 23:33N 48°23' W 004°29'0 0.0
2014-Nov-11 22:33N 48°23' W 004°29'0 0.0
2014-Nov-11 21:33N 48°23' W 004°29'0 0.0
2014-Nov-11 20:33N 48°23' W 004°29'0 0.0
2014-Nov-11 19:33N 48°23' W 004°29'0 0.0
2014-Nov-11 18:33N 48°23' W 004°29'0 0.0
2014-Nov-11 17:33N 48°23' W 004°29'0 0.0
2014-Nov-11 16:33N 48°23' W 004°29'0 0.0
2014-Nov-11 15:33N 48°23' W 004°29'0 0.0
2014-Nov-11 14:33N 48°23' W 004°29'0 0.0
2014-Nov-11 13:32N 48°23' W 004°29'0 0.0
2014-Nov-11 12:08N 48°23' W 004°29'0 0.0
2014-Nov-11 11:33N 48°23' W 004°29'0 0.0
2014-Nov-11 10:33N 48°23' W 004°29'0 0.0
2014-Nov-11 09:33N 48°23' W 004°29'0 0.0
2014-Nov-11 08:33N 48°23' W 004°29'0 0.0
2014-Nov-11 07:33N 48°23' W 004°29'0 0.0
2014-Nov-11 06:33N 48°23' W 004°29'0 0.0
2014-Nov-11 05:33N 48°23' W 004°29'0 0.0
2014-Nov-11 04:33N 48°23' W 004°29'0 0.0
2014-Nov-11 03:33N 48°23' W 004°29'0 0.0
2014-Nov-11 02:34N 48°23' W 004°29'0 0.0
2014-Nov-11 01:33N 48°23' W 004°29'0 0.0
2014-Nov-11 00:33N 48°23' W 004°29'0 0.0
2014-Nov-10 23:33N 48°23' W 004°29'0 0.0
2014-Nov-10 22:33N 48°23' W 004°29'0 0.0
2014-Nov-10 21:33N 48°23' W 004°29'0 0.0
2014-Nov-10 20:33N 48°23' W 004°29'0 0.0
2014-Nov-10 19:33N 48°23' W 004°29'0 0.0
2014-Nov-10 18:33N 48°23' W 004°29'0 0.0
2014-Nov-10 17:33N 48°23' W 004°29'0 0.0
2014-Nov-10 16:30N 48°23' W 004°29'0 0.0
2014-Nov-10 15:33N 48°23' W 004°29'0 0.0
2014-Nov-10 14:33N 48°23' W 004°29'0 0.0
2014-Nov-10 13:33N 48°23' W 004°29'0 0.0
2014-Nov-10 12:33N 48°23' W 004°29'0 0.0
2014-Nov-10 11:33N 48°23' W 004°29'0 0.0
2014-Nov-10 10:33N 48°23' W 004°29'0 0.0
2014-Nov-10 09:33N 48°23' W 004°29'0 0.0
2014-Nov-10 08:33N 48°23' W 004°29'0 0.0
2014-Nov-10 07:32N 48°23' W 004°29'0 0.0
2014-Nov-08 19:32N 48°23' W 004°29'0 0.0
2014-Nov-08 18:33N 48°23' W 004°29'0 0.0
2014-Nov-08 17:33N 48°23' W 004°29'0 0.0
2014-Nov-08 16:33N 48°23' W 004°29'0 0.0
2014-Nov-08 15:33N 48°23' W 004°29'0 0.0
2014-Nov-08 14:33N 48°23' W 004°29'0 0.0
2014-Nov-08 13:33N 48°23' W 004°29'0 0.0
2014-Nov-08 12:33N 48°23' W 004°29'0 0.0
2014-Nov-08 11:33N 48°23' W 004°29'0 0.0
2014-Nov-08 10:33N 48°23' W 004°29'0 0.0
2014-Nov-08 09:33N 48°23' W 004°29'0 0.0
2014-Nov-08 08:31N 48°23' W 004°29'0 0.0
2014-Nov-08 07:33N 48°23' W 004°29'0 0.0
2014-Nov-07 18:10N 48°23' W 004°29'0 0.0
2014-Nov-07 17:33N 48°23' W 004°29'0 0.0
2014-Nov-07 16:34N 48°23' W 004°29'0 0.0
2014-Nov-07 15:34N 48°23' W 004°29'  
Track history (hours):
 
Tides and Currents Weather Stations Pressure Air Temp Water Temp Dewpoint Dewpoint Depression Visibility Wind Speed Wind Dir Waves Ship Positions

Cotes De La Manche

Last reported at 2014-Nov-17 14:33 UTC. Time now 2014-Nov-21 16:33 UTC.
Position N 46°21' W 001°49'.

Length 25 m; draft 3.7 m.

Type: Other ship. MMSI: 227091000.

Date/timePositionNaut miles runAvg speedWind from/ knotsBaromVisibWave heightAir tempDewpointWater temp
2014-Nov-17 14:33N 46°21' W 001°49'1010.1
2014-Nov-17 13:33N 46°29' W 001°57'76 1.8
2014-Nov-15 20:29N 47°29' W 003°05'0 0.0
2014-Nov-15 19:16N 47°29' W 003°05'5 2.6
2014-Nov-15 17:10N 47°31' W 003°12'6 9.5
2014-Nov-15 16:33N 47°36' W 003°17'65 9.3
2014-Nov-15 09:32N 48°02' W 004°46'9 9.2
2014-Nov-15 08:33N 48°10' W 004°42'10 9.5
2014-Nov-15 07:33N 48°19' W 004°36'6 6.1
2014-Nov-15 06:33N 48°23' W 004°29'0 0.0
2014-Nov-15 05:33N 48°23' W 004°29'0 0.0
2014-Nov-15 04:33N 48°23' W 004°29'0 0.0
2014-Nov-15 03:33N 48°23' W 004°29'0 0.0
2014-Nov-15 02:33N 48°23' W 004°29'0 0.0
2014-Nov-15 01:33N 48°23' W 004°29'0 0.0
2014-Nov-15 00:33N 48°23' W 004°29'0 0.0
2014-Nov-14 23:33N 48°23' W 004°29'0 0.0
2014-Nov-14 22:33N 48°23' W 004°29'0 0.0
2014-Nov-14 21:33N 48°23' W 004°29'0 0.0
2014-Nov-14 20:33N 48°23' W 004°29'0 0.0
2014-Nov-14 19:33N 48°23' W 004°29'0 0.0
2014-Nov-14 18:33N 48°23' W 004°29'0 0.0
2014-Nov-14 17:33N 48°23' W 004°29'0 0.0
2014-Nov-14 16:33N 48°23' W 004°29'0 0.0
2014-Nov-14 15:27N 48°23' W 004°29'0 0.0
2014-Nov-14 14:33N 48°23' W 004°29'0 0.0
2014-Nov-14 12:33N 48°23' W 004°29'0 0.0
2014-Nov-14 11:33N 48°23' W 004°29'0 0.0
2014-Nov-14 10:33N 48°23' W 004°29'0 0.0
2014-Nov-14 09:33N 48°23' W 004°29'0 0.0
2014-Nov-14 08:33N 48°23' W 004°29'0 0.0
2014-Nov-14 07:33N 48°23' W 004°29'0 0.0
2014-Nov-14 06:33N 48°23' W 004°29'0 0.0
2014-Nov-14 05:33N 48°23' W 004°29'0 0.0
2014-Nov-14 04:33N 48°23' W 004°29'0 0.0
2014-Nov-14 03:33N 48°23' W 004°29'0 0.0
2014-Nov-14 02:33N 48°23' W 004°29'0 0.0
2014-Nov-14 01:33N 48°23' W 004°29'0 0.0
2014-Nov-14 00:33N 48°23' W 004°29'0 0.0
2014-Nov-13 23:33N 48°23' W 004°29'0 0.0
2014-Nov-13 22:33N 48°23' W 004°29'0 0.0
2014-Nov-13 21:33N 48°23' W 004°29'0 0.0
2014-Nov-13 20:33N 48°23' W 004°29'0 0.0
2014-Nov-13 19:33N 48°23' W 004°29'0 0.0
2014-Nov-13 18:33N 48°23' W 004°29'0 0.0
2014-Nov-13 17:33N 48°23' W 004°29'0 0.0
2014-Nov-13 16:33N 48°23' W 004°29'0 0.0
2014-Nov-13 15:33N 48°23' W 004°29'0 0.0
2014-Nov-13 14:33N 48°23' W 004°29'0 0.0
2014-Nov-13 13:33N 48°23' W 004°29'0 0.0
2014-Nov-13 12:33N 48°23' W 004°29'0 0.0
2014-Nov-13 11:33N 48°23' W 004°29'0 0.0
2014-Nov-13 10:33N 48°23' W 004°29'0 0.0
2014-Nov-13 09:33N 48°23' W 004°29'0 0.0
2014-Nov-13 08:33N 48°23' W 004°29'0 0.0
2014-Nov-13 07:33N 48°23' W 004°29'0 0.0
2014-Nov-13 06:33N 48°23' W 004°29'0 0.0
2014-Nov-13 05:33N 48°23' W 004°29'0 0.0
2014-Nov-13 04:33N 48°23' W 004°29'0 0.0
2014-Nov-13 03:33N 48°23' W 004°29'0 0.0
2014-Nov-13 02:33N 48°23' W 004°29'0 0.0
2014-Nov-13 01:33N 48°23' W 004°29'0 0.0
2014-Nov-13 00:34N 48°23' W 004°29'0 0.0
2014-Nov-12 23:33N 48°23' W 004°29'0 0.0
2014-Nov-12 22:33N 48°23' W 004°29'0 0.0
2014-Nov-12 21:33N 48°23' W 004°29'0 0.0
2014-Nov-12 20:33N 48°23' W 004°29'0 0.0
2014-Nov-12 19:33N 48°23' W 004°29'0 0.0
2014-Nov-12 18:33N 48°23' W 004°29'0 0.0
2014-Nov-12 17:33N 48°23' W 004°29'0 0.0
2014-Nov-12 16:33N 48°23' W 004°29'0 0.0
2014-Nov-12 15:33N 48°23' W 004°29'0 0.0
2014-Nov-12 14:33N 48°23' W 004°29'0 0.0
2014-Nov-12 13:33N 48°23' W 004°29'0 0.0
2014-Nov-12 12:34N 48°23' W 004°29'0 0.0
2014-Nov-12 11:33N 48°23' W 004°29'0 0.0
2014-Nov-12 10:33N 48°23' W 004°29'0 0.0
2014-Nov-12 09:33N 48°23' W 004°29'0 0.0
2014-Nov-12 08:33N 48°23' W 004°29'0 0.0
2014-Nov-12 07:33N 48°23' W 004°29'0 0.0
2014-Nov-12 06:33N 48°23' W 004°29'0 0.0
2014-Nov-12 05:33N 48°23' W 004°29'0 0.0
2014-Nov-12 04:33N 48°23' W 004°29'0 0.0
2014-Nov-12 03:33N 48°23' W 004°29'0 0.0
2014-Nov-12 02:33N 48°23' W 004°29'0 0.0
2014-Nov-12 01:33N 48°23' W 004°29'0 0.0
2014-Nov-12 00:33N 48°23' W 004°29'0 0.0
2014-Nov-11 23:33N 48°23' W 004°29'0 0.0
2014-Nov-11 22:33N 48°23' W 004°29'0 0.0
2014-Nov-11 21:33N 48°23' W 004°29'0 0.0
2014-Nov-11 20:33N 48°23' W 004°29'0 0.0
2014-Nov-11 19:33N 48°23' W 004°29'0 0.0
2014-Nov-11 18:33N 48°23' W 004°29'0 0.0
2014-Nov-11 17:33N 48°23' W 004°29'0 0.0
2014-Nov-11 16:33N 48°23' W 004°29'0 0.0
2014-Nov-11 15:33N 48°23' W 004°29'0 0.0
2014-Nov-11 14:33N 48°23' W 004°29'0 0.0
2014-Nov-11 13:32N 48°23' W 004°29'0 0.0
2014-Nov-11 12:08N 48°23' W 004°29'0 0.0
2014-Nov-11 11:33N 48°23' W 004°29'0 0.0
2014-Nov-11 10:33N 48°23' W 004°29'0 0.0
2014-Nov-11 09:33N 48°23' W 004°29'0 0.0
2014-Nov-11 08:33N 48°23' W 004°29'0 0.0
2014-Nov-11 07:33N 48°23' W 004°29'0 0.0
2014-Nov-11 06:33N 48°23' W 004°29'0 0.0
2014-Nov-11 05:33N 48°23' W 004°29'0 0.0
2014-Nov-11 04:33N 48°23' W 004°29'0 0.0
2014-Nov-11 03:33N 48°23' W 004°29'0 0.0
2014-Nov-11 02:34N 48°23' W 004°29'0 0.0
2014-Nov-11 01:33N 48°23' W 004°29'0 0.0
2014-Nov-11 00:33N 48°23' W 004°29'0 0.0
2014-Nov-10 23:33N 48°23' W 004°29'0 0.0
2014-Nov-10 22:33N 48°23' W 004°29'0 0.0
2014-Nov-10 21:33N 48°23' W 004°29'0 0.0
2014-Nov-10 20:33N 48°23' W 004°29'0 0.0
2014-Nov-10 19:33N 48°23' W 004°29'0 0.0
2014-Nov-10 18:33N 48°23' W 004°29'0 0.0
2014-Nov-10 17:33N 48°23' W 004°29'0 0.0
2014-Nov-10 16:30N 48°23' W 004°29'0 0.0
2014-Nov-10 15:33N 48°23' W 004°29'0 0.0
2014-Nov-10 14:33N 48°23' W 004°29'0 0.0
2014-Nov-10 13:33N 48°23' W 004°29'0 0.0
2014-Nov-10 12:33N 48°23' W 004°29'0 0.0
2014-Nov-10 11:33N 48°23' W 004°29'0 0.0
2014-Nov-10 10:33N 48°23' W 004°29'0 0.0
2014-Nov-10 09:33N 48°23' W 004°29'0 0.0
2014-Nov-10 08:33N 48°23' W 004°29'0 0.0
2014-Nov-10 07:32N 48°23' W 004°29'0 0.0
2014-Nov-08 19:32N 48°23' W 004°29'0 0.0
2014-Nov-08 18:33N 48°23' W 004°29'0 0.0
2014-Nov-08 17:33N 48°23' W 004°29'0 0.0
2014-Nov-08 16:33N 48°23' W 004°29'0 0.0
2014-Nov-08 15:33N 48°23' W 004°29'0 0.0
2014-Nov-08 14:33N 48°23' W 004°29'0 0.0
2014-Nov-08 13:33N 48°23' W 004°29'0 0.0
2014-Nov-08 12:33N 48°23' W 004°29'0 0.0
2014-Nov-08 11:33N 48°23' W 004°29'0 0.0
2014-Nov-08 10:33N 48°23' W 004°29'0 0.0
2014-Nov-08 09:33N 48°23' W 004°29'0 0.0
2014-Nov-08 08:31N 48°23' W 004°29'0 0.0
2014-Nov-08 07:33N 48°23' W 004°29'0 0.0
2014-Nov-07 18:10N 48°23' W 004°29'0 0.0
2014-Nov-07 17:33N 48°23' W 004°29'0 0.0
2014-Nov-07 16:34N 48°23' W 004°29'0 0.0
2014-Nov-07 15:34N 48°23' W 004°29'  

Dump ship's entire track history